Location: ?????oe
(44.4874°N, 135.7046°E)
Time: 03:16:24
(UTC+00:00)

Cosmos 2219 Rocket - Pass Details

Date: 13 December 2025
Orbit: 827 x 845 km, 71.0° (Epoch: 12 January)

Event Time Altitude Azimuth Distance (km) Brightness Sun altitude
Exits shadow 18:53:03 15° 27° (NNE) 2,102 4.5 -36.9°
Maximum altitude 18:54:24 17° 44° (NE) 2,030 4.5 -36.7°
Drops below altitude 10° 18:57:56 10° 83° (E) 2,455 5.4 -36.0°
Sets 19:01:19 0° 103° (ESE) 3,381 6.3 -35.4°
